Location: Yucca Valley
(34.1140°N, 116.4310°W)
Time: 11:23:18
(UTC-07:00)

Daily predictions for brighter satellites

Satellite Brightness Start Highest point End
(mag) Time Altitude Azimuth Time Altitude Azimuth Time Altitude Azimuth
ATLAS 3B CENTAUR R/B 4.5 18:51:40 10° SW 18:59:31 49° SSE 19:20:24 10° E
Cosmos 1825 Rocket 3.6 18:59:05 10° N 19:03:26 58° E 19:07:48 10° SSE
USA 229 DEB 4.0 18:56:59 10° NNW 19:04:06 60° ENE 19:11:20 10° SE
USA 229 4.0 18:57:05 10° NNW 19:04:12 60° NE 19:11:25 10° SE
Cosmos 2298 Rocket 4.3 19:03:07 10° N 19:08:15 47° ENE 19:13:22 10° SE
FREGAT/IRIS 3.9 19:06:08 10° SE 19:08:32 22° ENE 19:10:56 10° NNE
H-2A R/B 3.9 19:08:03 10° SE 19:10:59 22° ENE 19:13:56 10° NNE
Cosmos 1763 Rocket 3.4 19:09:41 10° S 19:14:45 78° ESE 19:19:54 10° NNE
Cosmos 540 Rocket 4.4 19:11:06 10° SSE 19:15:14 25° E 19:19:23 10° NE
Cosmos 1184 Rocket 4.2 19:12:08 10° NNW 19:15:23 45° W 19:18:37 10° S
Milstar 3 Cent rocket 3.3 19:13:56 10° SW 19:18:51 26° SSE 19:22:33 11° ESE
SL-08 ROCKET BODY 4.4 19:13:41 10° S 19:19:25 61° E 19:25:15 10° NNE
Cosmos 1766 4.0 19:24:48 10° SSE 19:28:17 31° E 19:31:46 10° NNE
FENGYUN 3A 3.6 19:23:15 10° SSE 19:28:36 81° ENE 19:33:58 10° N
ATLAS CENTAUR R/B 3.9 19:16:45 10° NW 19:29:58 47° NNE 19:33:57 16° ESE
Meteor 1-22 Rocket 4.5 19:24:31 10° SSE 19:29:59 45° E 19:35:16 10° NNE
Meteor 2-5 Rocket 3.8 19:25:59 10° N 19:31:47 62° E 19:37:24 10° SSE
Cosmos 1656 Rocket 4.0 19:26:35 10° N 19:31:56 43° ENE 19:37:10 10° SE
Cosmos 1707 2.6 19:29:46 10° N 19:33:42 80° E 19:37:37 10° S
COSMOS 2406 3.3 19:29:58 10° S 19:35:30 55° ESE 19:41:05 10° NNE
Lacrosse 5 3.8 19:31:15 10° WNW 19:35:33 28° WSW 19:39:50 10° S
Cosmos 1758 Rocket 3.8 19:31:35 10° N 19:36:05 77° W 19:40:33 10° S
NOAA 12 4.4 19:31:26 10° S 19:36:38 70° WSW 19:41:53 10° NNW
Cosmos 1726 Rocket 4.4 19:33:09 10° SSW 19:37:26 55° W 19:41:42 10° N
Thor Agena Rocket 3.9 19:33:32 10° N 19:38:46 72° WNW 19:43:53 10° SSW
Cosmos 2181 Rocket 4.0 19:33:59 10° N 19:40:10 83° W 19:46:17 10° S
Cosmos 2369 Rocket 4.0 19:37:21 10° NW 19:42:20 33° WSW 19:47:17 10° SSW
Cosmos 909 Rocket 4.5 19:35:25 10° NNW 19:43:48 86° WSW 19:50:31 10° SSE
FengYun 1-2 T 4.2 19:38:32 10° SSE 19:44:06 68° ENE 19:49:38 10° N
Cosmos 1544 3.4 19:42:01 10° SSE 19:45:25 41° E 19:48:51 10° NNE
Cosmos 2154 Rocket 4.5 19:42:10 10° SSE 19:47:42 35° E 19:53:17 10° NNE
Cosmos 1378 3.4 19:44:34 10° NNW 19:48:21 71° W 19:52:05 10° S
Cosmos 2074 Rocket 3.9 19:44:49 10° S 19:51:01 79° E 19:57:14 10° N
In-Cosmos 22 4.3 19:53:32 10° N 19:59:08 54° E 20:04:17 12° SSE
Cosmos 1805 3.4 19:59:20 10° SSE 20:03:05 48° E 20:06:52 10° NNE
Resurs 01 Rocket 1.9 20:05:41 38° ESE 20:06:41 45° ENE 20:10:54 10° N
CZ-2D R/B 3.1 20:08:20 47° SE 20:09:08 61° ENE 20:12:53 10° N
ISS -3.6 20:06:10 10° SW 20:09:00 55° S 20:09:00 55° S
Cosmos 1125 Rocket 3.8 20:06:31 10° N 20:11:36 45° ENE 20:12:44 39° ESE
BREEZE-M DEB (TANK) 4.2 19:57:11 10° WSW 20:11:53 65° NW 20:15:14 20° NE
GP-B 3.1 20:11:14 10° NNE 20:15:36 54° E 20:16:07 51° ESE
Envisat 3.2 20:15:11 42° ESE 20:16:03 46° ENE 20:20:54 10° N
Cosmos 1812 Rocket 3.4 20:11:44 10° S 20:16:10 76° E 20:20:38 10° N
GEOS 3 Rocket 3.9 20:15:20 31° ENE 20:17:27 47° ESE 20:22:34 10° SSW
Cosmos 372 Rocket 4.2 20:15:17 10° N 20:20:22 48° ENE 20:20:49 46° E
Nadezhda 3 Rocket 4.0 20:17:26 10° N 20:23:37 55° E 20:25:40 39° SE
OAO 3 Copernicus 4.3 20:19:00 10° W 20:24:03 80° N 20:25:08 55° ENE
BREEZE-M DEB 2.7 20:18:12 10° NW 20:24:10 66° SW 20:24:22 64° SSW
SJ-6B 4.3 20:23:21 10° SSW 20:27:06 37° W 20:30:49 10° NNW
Yuri Rocket 3.9 20:26:45 10° WSW 20:30:17 35° SSW 20:30:17 35° SSW
Meteor 2-8 Rocket 4.5 20:29:42 10° N 20:35:50 79° W 20:40:54 15° S
Meteor 1-24 Rocket 4.4 20:31:08 10° NNW 20:36:55 55° W 20:42:29 10° S
Cosmos 1066 4.4 20:37:09 10° N 20:42:38 79° E 20:42:59 75° SE
Cosmos 1295 Rocket 4.3 20:44:30 66° E 20:44:37 66° E 20:50:38 10° NNE
BREEZE-M (TANK) 3.2 20:35:57 10° NW 20:44:56 62° SW 20:45:11 60° SSW
ATLAS 2AS CENTAUR R/B 4.1 20:43:47 10° N 20:50:13 26° NE 20:50:24 26° NE
NOSS 3-1 (A) 4.3 20:51:58 10° NW 20:59:48 68° WSW 21:03:17 39° S
Resurs 01 Rocket 4.5 21:43:16 13° W 21:43:20 13° W 21:45:21 10° WNW
FALCON 9 R/B 4.3 22:02:05 10° W 22:03:26 23° W 22:03:26 23° W
ATLAS 2AS CENTAUR R/B 4.4 22:34:07 10° NW 22:37:49 30° NW 22:37:49 30° NW
